Regional Weather Roundup
Issued by NWS Grand Forks, ND

Home | Current Version | Previous Version | Text Only | Print | Product List | Glossary On
Versions: 1 2 3 4 5 6 7 8 9 10 11 12 13 14 15 16 17 18 19 20 21 22 23 24 25 26 27 28 29 30 31 32 33 34 35 36 37 38 39 40 41 42 43 44 45 46 47 48 49 50
000
ASUS43 KFGF 110331
RWRFGF
PRAIRIE TO PINES  WEATHER ROUNDUP
NATIONAL WEATHER SERVICE EASTERN NORTH DAKOTA/GRAND FORKS ND
900 PM CST SAT DEC 10 2016

 **SATELLITE DATA USED TO AUGMENT SKY COVER AT AUTOMATED STATIONS**
 *****  WEATHER ACROSS EASTERN NORTH DAKOTA  *****

CITY           SKY/WX    TMP DP  RH WIND       PRES   REMARKS
GRAND FORKS    CLOUDY    -5 -10  79 NE7       30.23F WCI -19
GRAND FRKS AFB PTCLDY    -8 -13  78 NE6       30.23F WCI -21
DEVILS LAKE    CLOUDY    -5  -9  83 E15       30.13F WCI -26
FARGO          FLURRIES   3  -4  72 NE8       30.20S WCI -10
WAHPETON ARPT  CLOUDY     9   1  72 E10       30.15F WCI  -6
$$

 ***** WEATHER ACROSS CENTRAL AND WESTERN NORTH DAKOTA  *****

CITY           SKY/WX    TMP DP  RH WIND       PRES   REMARKS
BISMARCK       LGT SNOW   0  -4  83 E10       29.99S FOG     WCI -16
MINOT          CLOUDY    -4  -9  79 E15       30.02F WCI -25
JAMESTOWN      LGT SNOW  -1  -6  79 E13       30.07F WCI -19
MINOT AFB      CLOUDY    -5 -10  80 E17       30.03F WCI -27
GARRISON         N/A     -2  -7  79 E16       29.98F WCI -23
WILLISTON      LGT SNOW   2  -3  80 SE12      29.97R VSB 3/4 WCI -15
DICKINSON      LGT SNOW  -3  -7  82 SE9       29.84S VSB 1   WCI -19
HETTINGER      LGT SNOW  -1  -5  82 SE7       29.85S FOG     WCI -14
$$

 *****  OTHER AIRPORT OBSERVATIONS IN OUR AREA  *****

CITY           SKY/WX    TMP DP  RH WIND       PRES   REMARKS
WALHALLA         N/A    -13 -13 100 CALM      30.25F
GRAFTON AIRPOR FAIR      -9 -13  84 N7        30.27F WCI -24
VALLEY CITY AR LGT SNOW   0  -2  92 E13       30.12F WCI -18
CANDO          CLOUDY    -4  -9  77 E13       30.15F WCI -23
CAVALIER APRT    N/A    -11 -17  77 CALM      30.26F
GWINNER        CLOUDY     5   3  92 E14       30.09F WCI -12
ROLLA          CLOUDY    -8 -11  84 E5        30.10F WCI -19
 ***** THE ABOVE OBSERVATIONS ARE NON NWS ARE NOT QUALITY
       CONTROLLED AND MAY MIS-REPORT RAIN FOR SNOW...
$$

  *****  WEATHER ACROSS NORTHERN MINNESOTA  *****

CITY           SKY/WX    TMP DP  RH WIND       PRES   REMARKS
FLAG ISLAND    CLOUDY     0  -6  78 CALM      30.25F
WARROAD        CLOUDY   -11 -17  77 CALM      30.24S
ROSEAU         CLOUDY   -11 -17  77 CALM      30.25F
HALLOCK        CLOUDY    -9 -15  77 E7        30.25F WCI -24
THF RVR FALLS  CLOUDY    -9 -12  87 NE9       30.23F WCI -26
BAUDETTE       CLOUDY    -6 -10  83 E3        30.23F
WASKISH        CLOUDY    -8  -9  92 CALM      30.23S
CROOKSTON      CLOUDY    -6  -9  84 E8        30.23F WCI -21
STEPHEN NDAWN    N/A     -9 -15  77 E3          N/A
GREENBUSH NDAW   N/A    -11 -17  77 CALM        N/A
$$
  *****  WEATHER ACROSS CENTRAL AND WEST MINNESOTA  *****

CITY           SKY/WX    TMP DP  RH WIND       PRES   REMARKS
FOSSTON        CLOUDY    -6 -11  77 E3        30.19F
BEMIDJI        CLOUDY     0  -6  78 E6        30.18S WCI -12
PARK RAPIDS    CLOUDY     4  -4  69 E10       30.15F WCI -11
ELBOW LAKE     LGT SNOW   7   3  85 SE12      30.14S WCI  -9
WADENA         FLURRIES   3   0  85 E5        30.16R WCI  -6
DETROIT LAKES  FLURRIES   5   0  78 SE8       30.15F WCI  -8
MOORHEAD       MIX PCPN   3  -2  78 E6        30.19F WCI  -8
FERGUS FALLS   FLURRIES   7   0  72 E7        30.20S WCI  -5
MORRIS MN      LGT SNOW  10   7  85 E15       30.11F WCI  -6
STAPLES        NOT AVBL
$$
  *****  WEATHER ELSEWHERE ACROSS MINNESOTA  *****

CITY           SKY/WX    TMP DP  RH WIND       PRES   REMARKS
DULUTH         CLOUDY     2  -4  76 N5        30.20F WCI  -8
INTRNTL FALLS  CLOUDY   -13 -18  78 CALM      30.24F
ELY            CLOUDY   -11 -15  84 CALM      30.22F
CLOQUET        CLOUDY     1  -4  78 CALM      30.20F
WHEATON        LGT SNOW  10   7  85 E10       30.15F WCI  -3
BRAINERD       CLOUDY     7   1  76 E3        30.18F
HIBBING        CLOUDY   -11 -16  78 CALM      30.22S
ALEXANDRIA     LGT SNOW   8   3  80 E12       30.14R WCI  -7
SAINT CLOUD    LGT SNOW  10   6  84 E6        30.19F FOG     WCI   0
MINNEAPOLIS    LGT SNOW  13   8  81 E9        30.20F WCI   1
$$

  *****  WEATHER ACROSS SOUTH DAKOTA  *****

CITY           SKY/WX    TMP DP  RH WIND       PRES   REMARKS
SIOUX FALLS    LGT SNOW  19  17  92 E13       29.96F FOG     WCI   6
BROOKINGS      LGT SNOW  10   7  87 E14       29.97F FOG     WCI  -6
WATERTOWN      LGT SNOW   7   3  84 E12G22    29.98F VSB 3/4 WCI  -8
HURON          LGT SNOW  14  12  92 E15       29.93F FOG     WCI  -1
SISSETON         N/A      6   2  83 E6        30.12F WCI  -4
ABERDEEN       LGT SNOW   7   1  76 NE13      30.01F WCI  -9
MITCHELL       CLOUDY    20  18  92 SE14      29.93F WCI   7
PIERRE         CLOUDY    12   8  84 E17       29.83F WCI  -5
MOBRIDGE       LGT SNOW   6  -1  73 E6        29.90F WCI  -4
RAPID CITY     CLOUDY     5   1  83 NW16      29.77R WCI -14
$$

  *****  SOME WEATHER IN NEARBY STATES *****

CITY           SKY/WX    TMP DP  RH WIND       PRES   REMARKS
GLASGOW MT     FLURRIES   3  -3  76 E13       29.85R WCI -14
GREAT FALLS MT CLOUDY    -2  -5  87 E3        29.77R
CHEYENNE WY    CLOUDY    44  28  53 W23G35    29.68F
SCOTTSBLUFF NE CLOUDY    22  17  81 NE8       29.64F WCI  12
OMAHA NE       CLOUDY    32  19  58 SE14      29.97F WCI  22
DES MOINES IA  CLOUDY    26  18  71 SE12      30.07F WCI  16
DAVENPORT IA   CLOUDY    23  19  85 SE16      30.21F WCI  10
CHICAGO IL     LGT SNOW  22  19  89 S9        30.32F FOG     WCI  12
EAU CLAIRE WI  LGT SNOW  13   9  84 SE6       30.24F FOG     WCI   4
LA CROSSE WI   LGT SNOW  17  14  88 CALM      30.23F FOG
$$

  *****  SOME NATIONAL WEATHER *****

CITY           SKY/WX    TMP DP  RH WIND       PRES   REMARKS
LA GUARDIA NY  PTCLDY    33  19  56 NW13      30.45R WCI  24
RALEIGH NC     PTCLDY    29  16  58 CALM      30.52R
ATLANTA GA     PTCLDY    40  19  43 E5        30.41S
NEW ORLEANS LA CLEAR     44  31  60 CALM      30.38F
OKLAHOMA CITY  CLOUDY    40  34  79 S23G30    29.97S
ALBUQUERQUE NM CLOUDY    42  29  59 E7        30.04F
SALT LAKE CITY LGT RAIN  38  35  89 N7        29.92R
LOS ANGELES CA CLOUDY    60  59  96 W7        30.11R FOG
BOISE ID       FOG       30  30 100 SW3       29.94R VSB 1/2
SEATTLE WA     LGT RAIN  41  39  93 S13       29.85R
$$

*** WEATHER ACROSS MANITOBA...SASKATCHEWAN AND ONTARIO ***
                ***ONTARIO***

CITY           SKY/WX    TMP DP  RH WIND       PRES   REMARKS
GERALDTON      FLURRIES   1  -4  78 VRB2      30.25S
THUNDER BAY    MOCLDY     3  -2  78 W5        30.32F WCI  -6
SIOUX LOOKOUT  PTCLDY   -18 -24  76 VRB2      30.24F
TORONTO        PTCLDY    21  16  79 W9        30.34S WCI  11
BIG TROUT LK   CLEAR    -11 -15  84 W3        30.26S
PICKLE LAKE    NOT AVBL
DRYDEN         CLEAR     -9 -11  92 E2        30.23F
KENORA         PTCLDY    -6  -9  84 N5        30.23S WCI -17
$$
                *** MANITOBA***

CITY           SKY/WX    TMP DP  RH WIND       PRES   REMARKS
BRANDON        CLEAR    -18 -24  76 NE3       30.18S
DAUPHIN        CLEAR    -24 -29  76 W6        30.22S WCI -40
ISLAND LAKE    NOT AVBL
PILOT MOUND      N/A    -15 -18  84 E8          N/A  WCI -32
THE PAS        CLEAR     -9 -17  70 S2        30.18F
THOMPSON       PTCLDY    -9 -15  77 SW7       30.14F WCI -24
WINNIPEG       CLEAR     -9 -13  84 SE2       30.29F
LYNN LAKE      MOCLDY   -15 -18  84 SW7       30.02S WCI -31
CHURCHILL      PTCLDY    -9 -15  77 W12       30.05F WCI -29
GILLAM         FLURRIES  -4  -9  77 SW16      30.15S WCI -25
$$
                ***SASKATCHEWAN***

CITY           SKY/WX    TMP DP  RH WIND       PRES   REMARKS
ESTEVAN        FLURRIES -11 -17  77 E13       30.02S WCI -32
KINDERSLEY     CLOUDY     1  -2  85 E10       29.91F WCI -14
LLOYDMINSTER   FLURRIES  -4  -8  84 SE6       29.97S WCI -16
PRINCE ALBERT  MOCLDY   -15 -20  76 NE2       30.10F
REGINA         CLOUDY    -8 -18  59 SE13      30.03R WCI -28
YORKTON        CLEAR    -18 -24  76 CALM      30.12S
N. BATTLEFORD  CLEAR     -6 -11  77 E15       30.03F WCI -27
LA RONGE       CLEAR    -18 -24  76 CALM      30.10F
SASKATOON      CLEAR     -4  -9  77 SE13      30.07F WCI -23
SWIFT CURRENT  FLURRIES   1  -2  85 E13G18    29.84S WCI -16
$$
NOTE: THESE ARE AUTOMATED STATIONS WITH LIMITED QUALITY CONTROL
      "FAIR" INDICATES FEW OR NO CLOUDS BELOW 12,000 FEET WITH NO
      SIGNIFICANT WEATHER AND/OR OBSTRUCTIONS TO VISIBILITY.
      SKY/WX - SKY CONDITION AND SIGNIFICANT WEATHER.
      TMP - AIR TEMPERATURE.    DP   - DEWPOINT TEMPERATURE.
      RH  - RELATIVE HUMIDITY.  PRES - PRESSURE.
      HX  - HEAT INDEX.         WCI  - WIND CHILL INDEX.
$



USA.gov is the U.S. government's official web portal to all federal, state and local government web resources and services.